Stations météo

Publicité
Dourbes, Belgique (6455): Température de l'air & dewpoint: 10.02.2019 08:00:00 - 16.02.2019 08:00:00 (CET)Dourbes, Belgique (6455): Vitesse du vent & gusts: 10.02.2019 08:00:00 - 16.02.2019 08:00:00 (CET)Dourbes, Belgique (6455): Direction du vent: 10.02.2019 08:00:00 - 16.02.2019 08:00:00 (CET)Dourbes, Belgique (6455): reduced air pressure: 10.02.2019 08:00:00 - 16.02.2019 08:00:00 (CET)Dourbes, Belgique (6455): Ensoleillement: 10.02.2019 08:00:00 - 16.02.2019 08:00:00 (CET)Dourbes, Belgique (6455): Quantités de précipitations: 10.02.2019 08:00:00 - 16.02.2019 08:00:00 (CET)
Date & Time tt [°C] td [°C] ff [km/h] ff [knt] fx [km/h] fx [knt] dd ppp [hPa] sd [min] rr [mm]
16.02.2019 08:00:00 4,3 0,1 6 3 14 8 SSE 1026,7 0 0,0
16.02.2019 07:00:00 4,7 0,2 7 4 17 9 SSE 1026,4 0 0,0
16.02.2019 06:00:00 5,2 0,8 6 3 17 9 S 1026,2 0 0,0
16.02.2019 05:00:00 5,6 0,5 12 6 23 12 S 1026,6 0 0,0
16.02.2019 04:00:00 5,9 0,5 9 5 18 10 S 1026,7 0 0,0
16.02.2019 03:00:00 7,6 1,0 13 7 20 11 SSE 1026,6 0 0,0
16.02.2019 02:00:00 7,8 1,1 9 5 15 8 S 1026,7 0 0,0
16.02.2019 01:00:00 5,8 0,3 4 2 6 4 WNW 1027,1 0 0,0
16.02.2019 00:00:00 7,8 0,6 4 2 10 5 S 1026,7 0 0,0
15.02.2019 23:00:00 8,9 1,0 5 3 9 5 ESE 1027,0 0 0,0
15.02.2019 22:00:00 8,6 0,3 4 2 10 5 SE 1027,4 0 0,0
15.02.2019 21:00:00 9,7 0,9 4 2 6 4 E 1027,4 0 0,0
15.02.2019 20:00:00 9,0 -0,4 4 2 8 5 E 1027,7 0 0,0
15.02.2019 19:00:00 10,3 -1,1 4 2 13 7 S 1027,8 0 0,0
15.02.2019 18:00:00 13,4 -1,6 9 5 17 9 S 1027,3 34 0,0
15.02.2019 17:00:00 15,7 -2,0 10 5 22 12 S 1027,2 60 0,0
15.02.2019 16:00:00 16,8 -1,0 11 6 21 12 S 1027,6 60 0,0
15.02.2019 15:00:00 16,9 -1,2 11 6 18 10 S 1028,3 60 0,0
15.02.2019 14:00:00 16,1 -1,3 12 6 28 15 S 1029,0 60 0,0
15.02.2019 13:00:00 15,2 -1,6 18 10 26 14 S 1029,8 60 0,0
15.02.2019 12:00:00 13,7 0,5 10 5 16 8 S 1030,5 60 0,0
15.02.2019 11:00:00 10,5 1,0 8 4 12 7 S 1030,9 60 0,0
15.02.2019 10:00:00 5,1 1,4 0 0 3 2 N 1031,8 60 0,0
15.02.2019 09:00:00 1,0 -0,9 0 0 5 3 N 1032,3 46 0,0
15.02.2019 08:00:00 -0,2 -1,5 4 2 6 3 E 1032,3 0 0,0
15.02.2019 07:00:00 0,1 -1,8 4 2 5 3 E 1032,1 0 0,0
15.02.2019 06:00:00 0,0 -2,0 4 2 12 7 SE 1032,3 0 0,0
15.02.2019 05:00:00 2,7 -1,3 8 4 13 7 E 1032,2 0 0,0
15.02.2019 04:00:00 3,0 -1,2 7 4 12 7 E 1032,3 0 0,0
15.02.2019 03:00:00 2,4 -1,6 4 2 6 4 E 1032,5 0 0,0
15.02.2019 02:00:00 3,0 -2,0 4 2 10 5 NE 1033,0 0 0,0
15.02.2019 01:00:00 4,8 -2,8 4 2 10 5 NNE 1032,7 0 0,0
15.02.2019 00:00:00 7,6 -2,2 4 2 11 6 ENE 1032,4 0 0,0
14.02.2019 23:00:00 7,2 -1,6 6 4 12 6 E 1032,7 0 0,0
14.02.2019 22:00:00 7,3 -0,5 5 3 10 5 NE 1032,7 0 0,0
14.02.2019 21:00:00 7,5 0,0 6 4 14 8 E 1032,7 0 0,0
14.02.2019 20:00:00 9,1 -0,5 9 5 13 7 E 1032,8 0 0,0
14.02.2019 19:00:00 10,2 -0,5 7 4 10 5 E 1032,7 0 0,0
14.02.2019 18:00:00 12,7 -0,4 6 3 14 7 ESE 1032,1 33 0,0
14.02.2019 17:00:00 14,8 -1,0 7 4 16 9 SE 1032,1 60 0,0
14.02.2019 16:00:00 15,4 0,5 4 2 9 5 E 1032,6 60 0,0
14.02.2019 15:00:00 14,7 2,1 4 2 9 5 ESE 1032,8 60 0,0
14.02.2019 14:00:00 13,2 2,5 4 2 9 5 ESE 1033,6 60 0,0
14.02.2019 13:00:00 10,0 2,8 7 4 10 5 ENE 1034,5 60 0,0
14.02.2019 12:00:00 7,5 2,4 4 2 7 4 N 1035,1 60 0,0
14.02.2019 11:00:00 4,5 1,7 4 2 9 5 SSE 1035,5 60 0,0
14.02.2019 10:00:00 2,3 1,1 4 2 8 5 NE 1035,9 60 0,0
14.02.2019 09:00:00 -1,1 -1,1 5 3 7 4 E 1036,4 45 0,0
14.02.2019 08:00:00 -3,3 -3,3 4 2 6 3 SSW 1036,2 0 0,0
14.02.2019 07:00:00 -2,1 -2,1 4 2 6 4 ESE 1035,5 0 0,0
14.02.2019 06:00:00 -2,2 -2,3 4 2 6 3 E 1035,7 0 0,0
14.02.2019 05:00:00 -1,7 -1,9 4 2 9 5 ESE 1035,5 0 0,0
14.02.2019 04:00:00 -2,4 -2,6 4 2 8 4 ESE 1036,0 0 0,0
14.02.2019 03:00:00 -1,8 -2,2 4 2 8 4 NE 1035,7 0 0,0
14.02.2019 02:00:00 -1,4 -1,8 0 0 7 4 N 1035,8 0 0,0
14.02.2019 01:00:00 -0,6 -2,3 4 2 9 5 E 1036,0 0 0,0
14.02.2019 00:00:00 0,2 -1,7 4 2 7 4 E 1035,7 0 0,0
13.02.2019 23:00:00 1,0 -1,5 4 2 7 4 SE 1035,8 0 0,0
13.02.2019 22:00:00 0,9 -1,0 4 2 5 3 ENE 1036,2 0 0,0
13.02.2019 21:00:00 1,4 -0,7 0 0 5 3 N 1036,1 0 0,0
13.02.2019 20:00:00 2,7 0,3 4 2 6 4 SE 1035,8 0 0,0
13.02.2019 19:00:00 4,0 0,2 4 2 6 3 SSE 1035,9 0 0,0
13.02.2019 18:00:00 5,9 0,2 5 3 11 6 S 1035,6 32 0,0
13.02.2019 17:00:00 7,4 0,5 6 3 13 7 S 1035,2 60 0,0
13.02.2019 16:00:00 7,6 1,2 6 3 15 8 S 1035,1 60 0,0
13.02.2019 15:00:00 7,4 1,5 7 4 16 8 S 1035,6 60 0,0
13.02.2019 14:00:00 7,0 1,9 6 4 14 8 SW 1036,0 60 0,0
13.02.2019 13:00:00 6,2 1,7 8 4 14 8 S 1036,4 60 0,0
13.02.2019 12:00:00 5,0 2,5 5 3 9 5 SW 1037,1 60 0,0
13.02.2019 11:00:00 2,1 1,9 4 2 7 4 ESE 1037,2 60 0,0
13.02.2019 10:00:00 0,0 0,0 0 0 5 3 N 1037,7 60 0,1
13.02.2019 09:00:00 -2,0 -2,0 4 2 6 3 ENE 1037,7 43 0,0
13.02.2019 08:00:00 -2,6 -2,6 4 2 5 3 ENE 1037,4 0 0,0
13.02.2019 07:00:00 -2,0 -2,0 4 2 5 3 E 1037,2 0 0,0
13.02.2019 06:00:00 -2,0 -2,0 0 0 3 1 N 1037,3 0 0,0
13.02.2019 05:00:00 -2,0 -2,0 0 0 6 3 N 1037,5 0 0,0
13.02.2019 04:00:00 -2,0 -2,0 4 2 5 3 E 1037,9 0 0,0
13.02.2019 03:00:00 -0,6 -0,6 4 2 4 2 ENE 1038,1 0 0,0
13.02.2019 02:00:00 -0,6 -0,6 4 2 8 5 W 1037,5 0 0,0
13.02.2019 01:00:00 -0,7 -0,7 4 2 6 3 SSW 1037,8 0 0,0
13.02.2019 00:00:00 -0,7 -0,7 4 2 10 5 S 1037,2 0 0,0
12.02.2019 23:00:00 -0,4 -0,4 7 4 10 5 SSW 1037,3 0 0,0
12.02.2019 22:00:00 0,4 0,4 7 4 12 7 SSE 1037,0 0 0,0
12.02.2019 21:00:00 -0,1 -0,4 4 2 7 4 SSW 1037,3 0 0,0
12.02.2019 20:00:00 1,1 0,5 5 3 10 6 S 1036,8 0 0,0
12.02.2019 19:00:00 1,9 0,7 7 4 12 7 SSW 1036,8 0 0,0
12.02.2019 18:00:00 3,2 1,0 8 4 16 8 SSW 1036,3 7 0,0
12.02.2019 17:00:00 4,8 1,6 11 6 22 12 S 1035,7 60 0,0
12.02.2019 16:00:00 6,6 2,6 10 5 22 12 WSW 1035,4 46 0,0
12.02.2019 15:00:00 7,5 2,5 11 6 22 12 SSW 1035,1 48 0,0
12.02.2019 14:00:00 6,8 2,1 11 6 18 10 SW 1035,3 37 0,0
12.02.2019 13:00:00 6,9 3,2 11 6 19 10 SW 1035,5 60 0,0
12.02.2019 12:00:00 3,2 2,7 5 3 8 5 SW 1036,1 2 0,0
12.02.2019 11:00:00 1,8 1,8 5 3 8 4 S 1036,2 25 0,0
12.02.2019 10:00:00 0,7 0,7 5 3 9 5 SSW 1036,1 0 0,0
12.02.2019 09:00:00 0,5 0,5 4 2 7 4 SSW 1035,5 0 0,0
12.02.2019 08:00:00 0,7 0,7 5 3 11 6 SSW 1034,6 0 0,0
12.02.2019 07:00:00 1,3 1,3 5 3 9 5 S 1034,3 0 0,0
12.02.2019 06:00:00 1,4 1,4 5 3 12 7 SW 1034,2 0 0,0
12.02.2019 05:00:00 1,5 1,5 4 2 11 6 W 1034,1 0 0,0
12.02.2019 04:00:00 1,9 1,9 4 2 9 5 W 1034,1 0 0,0
12.02.2019 03:00:00 2,3 2,3 5 3 10 5 W 1034,0 0 0,0
12.02.2019 02:00:00 2,2 2,2 4 2 14 8 WNW 1033,5 0 0,0
12.02.2019 01:00:00 2,4 2,4 7 4 16 9 NW 1033,3 0 0,0
12.02.2019 00:00:00 1,2 1,2 5 3 9 5 W 1032,8 0 0,0
11.02.2019 23:00:00 1,7 1,3 4 2 8 4 SSW 1032,0 0 0,0
11.02.2019 22:00:00 2,8 1,8 4 2 16 9 W 1031,3 0 0,0
11.02.2019 21:00:00 3,9 2,7 9 5 18 10 NW 1030,6 0 0,0
11.02.2019 20:00:00 3,9 1,9 5 3 11 6 WNW 1029,3 0 0,0
11.02.2019 19:00:00 5,1 2,7 7 4 18 10 NW 1028,3 0 0,0
11.02.2019 18:00:00 5,4 2,8 8 4 18 10 WNW 1027,3 6 0,0
11.02.2019 17:00:00 5,7 2,5 10 6 22 12 WNW 1026,3 18 0,0
11.02.2019 16:00:00 5,8 3,1 6 3 19 11 W 1025,1 8 0,0
11.02.2019 15:00:00 5,6 2,7 11 6 23 13 WNW 1024,1 0 0,0
11.02.2019 14:00:00 5,3 3,2 8 4 19 11 W 1023,1 0 0,0
11.02.2019 13:00:00 5,0 3,2 11 6 23 12 WNW 1022,4 0 0,0
11.02.2019 12:00:00 5,3 3,9 8 4 17 9 W 1021,4 16 0,0
11.02.2019 11:00:00 4,0 3,4 7 4 24 13 W 1020,1 50 0,0
11.02.2019 10:00:00 2,9 2,9 10 5 17 9 WSW 1019,1 51 0,0
11.02.2019 09:00:00 0,7 0,7 7 4 13 7 SW 1018,2 1 0,0
11.02.2019 08:00:00 0,6 0,6 7 4 16 9 WSW 1017,1 0 0,0
11.02.2019 07:00:00 0,6 0,5 7 4 12 6 SW 1016,1 0 0,0
11.02.2019 06:00:00 1,5 1,2 5 3 17 9 W 1015,1 0 0,0
11.02.2019 05:00:00 0,8 0,5 10 5 20 11 W 1014,1 0 0,0
11.02.2019 04:00:00 0,8 0,6 9 5 16 9 WSW 1013,4 0 0,0
11.02.2019 03:00:00 1,1 0,8 7 4 19 10 W 1012,8 0 0,0
11.02.2019 02:00:00 1,8 1,4 9 5 24 13 W 1011,5 0 0,0
11.02.2019 01:00:00 2,2 1,7 11 6 24 13 W 1010,2 0 0,0
11.02.2019 00:00:00 3,3 2,2 11 6 41 22 W 1008,7 0 0,0
10.02.2019 23:00:00 4,2 2,9 15 8 39 21 W 1007,4 0 0,0
10.02.2019 22:00:00 4,0 3,0 14 8 40 22 W 1005,9 0 0,0
10.02.2019 21:00:00 4,1 3,3 16 9 39 21 W 1004,4 0 0,1
10.02.2019 20:00:00 4,0 3,4 11 6 36 19 W 1002,6 0 0,1
10.02.2019 19:00:00 4,0 3,3 14 8 50 27 W 1000,5 0 0,4
10.02.2019 18:00:00 4,7 4,2 17 9 46 25 WSW 997,9 0 0,2
10.02.2019 17:00:00 5,3 4,4 20 11 47 26 WSW 996,4 0 0,0
10.02.2019 16:00:00 4,4 4,1 17 9 42 23 WSW 995,4 0 2,2
10.02.2019 15:00:00 6,8 5,5 20 11 52 28 SW 993,6 4 0,0
10.02.2019 14:00:00 6,4 5,9 23 13 50 27 SW 993,3 0 0,4
10.02.2019 13:00:00 6,7 6,5 18 10 33 18 SSW 993,2 0 0,3
10.02.2019 12:00:00 6,6 6,2 21 11 36 19 SSW 993,3 0 0,7
10.02.2019 11:00:00 7,0 6,6 19 11 53 29 SW 993,3 0 3,2
10.02.2019 10:00:00 8,5 8,1 28 15 67 36 SW 992,7 0 3,5
10.02.2019 09:00:00 8,1 8,0 21 11 52 28 S 992,6 0 1,7
10.02.2019 08:00:00 8,2 7,8 31 17 71 39 S 993,4 0 0,2

tt = Température de l'air
td = dewpoint
ff = Vitesse du vent
fx = gusts
dd = Direction du vent
ppp = reduced air pressure
sd = Ensoleillement
rr = Quantités de précipitations

stations d'obs. à proximité